Regional Weather Roundup
Issued by NWS

Home | Current Version | Previous Version | Graphics & Text | Print | Product List | Glossary On
Versions: 1 2 3 4 5 6 7 8 9 10 11 12 13 14 15 16 17 18 19 20 21 22 23 24 25 26 27 28 29 30 31 32 33 34 35 36 37 38 39 40 41 42 43 44 45 46 47 48 49 50
000
ASUS43 KLOT 040708
RWRIL

ILLINOIS REGIONAL WEATHER ROUNDUP
NATIONAL WEATHER SERVICE CHICAGO/ROMEOVILLE IL
200 AM CDT MON MAY 04 2015

NOTE: "FAIR" INDICATES FEW OR NO CLOUDS BELOW 12,000 FEET WITH NO
SIGNIFICANT WEATHER AND/OR OBSTRUCTIONS TO VISIBILITY.

* THESE STATIONS ARE NOT UNDER NWS QUALITY CONTROL. THEY ALSO MAY NOT
  REPORT WEATHER SUCH AS PRECIPITATION OR FOG.

ILZ001-002-007-009-015-016-024-040800-
NORTHWEST ILLINOIS

CITY           SKY/WX    TMP DP  RH WIND       PRES   REMARKS
MOLINE         RAIN      61  57  87 NE5       29.97R
STERLING*      CLOUDY    61  55  82 N6        29.99S
SAVANNA*       HVY RAIN  60  55  83 NE5       29.95S
$$

ILZ003-004-008-010-011-017-018-040800-
NORTH CENTRAL ILLINOIS

CITY           SKY/WX    TMP DP  RH WIND       PRES   REMARKS
ROCKFORD       LGT RAIN  63  56  78 N17G25    29.98R
FREEPORT*      RAIN      59  56  91 NE7       29.99R
ROCHELLE*      LGT RAIN  63  57  82 NW13G20   29.98R
DE KALB*       CLOUDY    63  50  62 W20G29    29.96R
PERU*          CLOUDY    66  49  55 W17G31    29.97R
$$

ILZ005-006-012>014-019>023-040800-
NORTHEAST ILLINOIS

CITY           SKY/WX    TMP DP  RH WIND       PRES   REMARKS
CHICAGO-OHARE  CLOUDY    67  47  48 SW15G22   29.90S
CHICAGO-MIDWAY MOCLDY    68  47  46 SW13G24   29.92F
AURORA         CLOUDY    67  48  50 S15       29.92S
LANSING*       MOCLDY    66  43  43 S14       29.94F
JOLIET*        MOCLDY    68  48  49 SW7       29.94R
WAUKEGAN       CLOUDY    65  50  58 SW16G23   29.88S
DUPAGE AIRPORT CLOUDY    64  49  57 SW9       29.91S
KANKAKEE*      MOCLDY    65  47  53 S15       29.96F
WHEELING       CLOUDY    67  47  48 SW12      29.92R
MORRIS*        MOCLDY    66  47  50 SW14      29.91S
ROMEOVILLE*    MOCLDY    67  45  45 SW20      29.93R
NORTHERLY ISL    N/A     69  44  40 SW13        N/A
$$

LMZ740>746-040800-
SOUTHERN LAKE MICHIGAN

STATION/POSITION SKY/WX   TEMP    WIND        PRES    VSBY  WAVE
                          AIR SEA DIR/SP/G                  HT/PER
                          (F)     (DEG/KT/KT) (MB)    (MI)  (FT/S)
HARRISON CRIB              68     210/ 25/ 32   N/A
BURNHAM HARBOR             69     200/ 11/ 17   N/A
CALUMET HARBOR             69     200/ 11/ 16   N/A
BURNS HARBOR               67     180/ 11/ 16 1014.6S
MICHIGAN CITY              68     150/ 15/ 20   N/A
MICHIGAN CITY 6N           60 50  190/ 10/ 14   N/A           1
ST. JOSEPH                 60 48  230/ 14/ 16   N/A           3/ 3
$$

ILZ025>027-034>036-040-047-049-050-058-095>099-040800-
WEST-CENTRAL ILLINOIS

CITY           SKY/WX    TMP DP  RH WIND       PRES   REMARKS
QUINCY         CLOUDY    69  53  56 SW9       29.95S
GALESBURG*     CLOUDY    67  54  63 NW14      29.96R
MACOMB*        CLOUDY    70  53  55 SW12      29.95S
JACKSONVILLE*  CLOUDY    71  53  52 S7        29.96S
PITTSFIELD*    CLOUDY    72  54  52 SW10      29.97S
$$

ILZ028>032-037-038-041>044-048-051>054-059>061-040800-
CENTRAL ILLINOIS

CITY           SKY/WX    TMP DP  RH WIND       PRES   REMARKS
PONTIAC        CLOUDY    68  48  48 S15       29.96F
BLOOMINGTON    CLOUDY    68  50  52 SW15      29.99F
DECATUR        CLOUDY    68  49  50 S16       30.00S
PEORIA         CLOUDY    67  49  52 S6        29.95S
LACON*         CLOUDY    69  48  46 S9        29.94R
LINCOLN*       CLOUDY    68  51  53 S10       29.96F
SPRINGFIELD    CLOUDY    70  51  51 S16       29.97S
TAYLORVILLE    CLOUDY    66  50  55 S15G21    30.00S
$$

ILZ033-039-045-046-055>057-062-063-040800-
EAST-CENTRAL ILLINOIS

CITY           SKY/WX    TMP DP  RH WIND       PRES   REMARKS
CHAMPAIGN      LGT RAIN  64  47  53 S12       30.01S
DANVILLE*      PTCLDY    64  47  54 S9        30.00S
RANTOUL*       MOCLDY    68  46  45 S10       30.00F
MATTOON        PTCLDY    65  46  50 S9        30.03R
PARIS*         PTCLDY    63  49  60 S9        30.05R
$$

ILZ079-100>102-040800-
SOUTHWEST ILLINOIS

CITY           SKY/WX    TMP DP  RH WIND       PRES   REMARKS
ALTON          CLOUDY    68  47  47 S8        30.01S
BELLEVILLE     MOCLDY    66  53  63 VRB2      30.01S
CAHOKIA*       MOCLDY    66  53  63 S6        30.01S
SPARTA*        PTCLDY    65  49  55 S3        30.05R
$$

ILZ064>066-069>071-074>076-080>082-084>086-088>090-092>094-040800-
SOUTH-CENTRAL ILLINOIS

CITY           SKY/WX    TMP DP  RH WIND       PRES   REMARKS
CARBONDALE     MOCLDY    64  49  57 S3        30.05R
CAIRO*         PTCLDY    66  51  57 S6        30.06R
EFFINGHAM*     MOCLDY    65  42  42 S3        30.06R
MARION         LGT RAIN  64  50  59 CALM      30.06R
MT. VERNON     CLOUDY   N/A N/A N/A S7        30.06R
CENTRALIA*     MOCLDY    65  46  50 S6        30.05R
SALEM*         CLOUDY    69  46  43 S9        30.05R
METROPOLIS*    PTCLDY    65  50  58 S3        30.06R
$$

ILZ067-068-072-073-078-083-087-091-040800-
SOUTHEAST ILLINOIS

CITY           SKY/WX    TMP DP  RH WIND       PRES   REMARKS
LAWRENCEVILLE  CLEAR     56  50  80 S7        30.06R
FLORA*         CLEAR     62  49  60 S7        30.05S
FAIRFIELD*     MOCLDY    64  49  59 S5        30.05R
HARRISBURG*    PTCLDY    59  50  72 CALM      30.07S
ROBINSON*      CLEAR     58  49  73 S6        30.06S
CARMI*         PTCLDY    58  49  72 S5        30.06R
$$

ABBREVIATIONS USED IN REMARKS
   TC - TEMPERATURE IN CELSIUS
  WCI - WIND CHILL INDEX
   HX - HEAT INDEX
  VSB - VISIBILITY
$$




USA.gov is the U.S. government's official web portal to all federal, state and local government web resources and services.